Regional Weather Roundup
Issued by NWS

Home | Current Version | Previous Version | Text Only | Print | Product List | Glossary On
Versions: 1 2 3 4 5 6 7 8 9 10 11 12 13 14 15 16 17 18 19 20 21 22 23 24 25 26 27 28 29 30 31 32 33 34 35 36 37 38 39 40 41 42 43 44 45 46 47 48 49 50
000
ASUS43 KMPX 211610
RWRMN
WEATHER ROUNDUP FOR MINNESOTA
NATIONAL WEATHER SERVICE TWIN CITIES/CHANHASSEN MN
1100 AM CDT TUE OCT 21 2014


NOTE: "FAIR" INDICATES FEW OR NO CLOUDS BELOW 12,000 FEET WITH NO
SIGNIFICANT WEATHER AND/OR OBSTRUCTIONS TO VISIBILITY. N/A MEANS
CURRENT SKY AND/OR WEATHER CONDITIONS ARE NOT AVAILABLE.

MNZ060>063-068>070-211700-
   Twin Cities Metro

CITY           SKY/WX    TMP DP  RH WIND       PRES   REMARKS
TWIN CITIES    SUNNY     48  37  65 SE17      30.20F
ST PAUL        SUNNY     48  39  71 SE14      30.22F
CRYSTAL        SUNNY     50  38  63 SE10      30.19S
BLAINE         SUNNY     52  39  62 SE14        N/A
LAKEVILLE      SUNNY     48  41  76 E14       30.19S
EDEN PRAIRIE   SUNNY     50  38  63 SE14      30.18F
SOUTH ST PAUL  SUNNY     50  38  62 SE8       30.21S
LAKE ELMO      FAIR      48  37  66 E9        30.22F
$$
MNZ001>005-007-008-013>017-022>024-027-028-211700-
   Northwest Minnesota

CITY           SKY/WX    TMP DP  RH WIND       PRES   REMARKS
BEMIDJI        SUNNY     47  39  74 S21       30.12S
HALLOCK        SUNNY     52  43  71 S21G26    29.99F
ROSEAU         SUNNY     48  41  76 SE15G21   30.07F
WARROAD        SUNNY     46  41  81 SE10G16   30.10F
THIEF RVR FALL SUNNY     48  39  71 SE15G22   30.04F
CROOKSTON      SUNNY     54  43  66 S18       30.02F
FOSSTON        SUNNY     50  39  66 SE13G22   30.07F
DETROIT LAKES  SUNNY     48  41  76 SE16G23   30.07F
MOORHEAD       SUNNY     55  45  67 SE22      30.02F
PARK RAPIDS    SUNNY     48  38  68 SE18      30.12F
MAHNOMEN       FAIR      50  39  66 S16G24    30.05F
$$
MNZ006-009>011-018-025>026-211700-
   North Central Minnesota

CITY           SKY/WX    TMP DP  RH WIND       PRES   REMARKS
BAUDETTE       SUNNY     46  38  73 SE10G22   30.13S
FLAG ISLAND    SUNNY     45  37  76 S21       30.11S
INTL FALLS     MOSUNNY   46  36  68 SE14G21   30.18F
WASKISH        SUNNY     46  43  87 SE14      30.13F
BIG FORK       PTSUNNY   46  37  71 SE12G20   30.19R
LONGVILLE      SUNNY     46  39  76 SE10      30.16S
GRAND RAPIDS   CLOUDY    43  36  75 SE10G17   30.19S
CRANE LAKE     CLOUDY    39  34  81 SE5       30.24S
ORR            CLOUDY    41  32  70 SE9       30.19F
COOK           CLOUDY    41  34  75 SE8       30.23S
WALKER         FAIR      47  38  72 SE10      30.14S
$$
MNZ012-019>021-037-211700-
   Northeast Minnesota

CITY           SKY/WX    TMP DP  RH WIND       PRES   REMARKS
DULUTH         CLOUDY    42  34  73 E14       30.24R
ELY            CLOUDY    37  34  87 S8        30.25R
HIBBING        CLOUDY    43  35  73 SE13      30.22S
EVELETH        CLOUDY    41  34  75 SE8       30.24S
DULUTH HARBOR  CLOUDY    45  37  76 SE6       30.27S
TWO HARBORS    CLOUDY    45  27  49 E8        30.25R
SILVER BAY     CLOUDY    43  36  75 E5        30.25S
GRAND MARAIS     N/A     41  33  73 E7        30.30S
G MARAIS ARPRT CLOUDY    34  28  80 E8        30.26S WCI  27
$$
MNZ029>031-032-039>041-046>048-054>057-064-211700-
   West Central Minnesota

CITY           SKY/WX    TMP DP  RH WIND       PRES   REMARKS
FERGUS FALLS   SUNNY     54  37  54 SE21      30.07S
WHEATON        SUNNY     52  39  62 SE17G23   30.05S
MORRIS         SUNNY     54  43  66 SE18G24   30.07S
ALEXANDRIA     SUNNY     50  41  71 SE17G23   30.12F
ELBOW LAKE       N/A    N/A N/A N/A MISG        N/A
WADENA         SUNNY     46  39  76 SE13G20   30.11F
GLENWOOD       SUNNY     50  43  76 SE15      30.12F
APPLETON       SUNNY     54  43  66 SE15      30.07F
BENSON         SUNNY     52  43  71 S15       30.10S
ORTONVILLE     SUNNY     52  41  66 SE15      30.05S
MADISON        SUNNY     55  43  62 SE10G18   30.07F
WILLMAR        FAIR      52  41  66 SE16      30.13F
$$
MNZ033>034-036-042>043-049>051-058-059-211700-
   Central Minnesota

CITY           SKY/WX    TMP DP  RH WIND       PRES   REMARKS
ST CLOUD       SUNNY     52  39  61 SE13G22   30.17F
SAUK CENTRE    FAIR      49  40  72 SE12      30.14F
PAYNESVILLE    SUNNY     47  40  76 E14       30.16S
AITKIN         SUNNY     48  39  71 E8        30.18S
PINE RIVER     MOSUNNY   46  39  76 SE15      30.18F
BRAINERD       SUNNY     47  38  71 SE17      30.17F
STAPLES        SUNNY     46  37  71 SE13G20   30.14S
LONG PRAIRIE   FAIR      46  39  76 SE13      30.14F
LITTLE FALLS   SUNNY     48  37  66 SE9       30.17S
LITCHFIELD     SUNNY     54  45  71 SE12      30.16S
BUFFALO        SUNNY     50  38  64 E10G16    30.19S
MAPLE LAKE     SUNNY     51  42  71 SE9       30.18F
$$
MNZ037-044-045-052-053-211700-
   East Central Minnesota

CITY           SKY/WX    TMP DP  RH WIND       PRES   REMARKS
PRINCETON      SUNNY     50  39  66 E8        30.19F
MORA           SUNNY     46  36  66 E9        30.22S
CAMBRIDGE      SUNNY     50  37  62 E9        30.19S
RUSH CITY      MOSUNNY   48  38  69 E6        30.22S
MOOSE LAKE     CLOUDY    45  36  70 E7        30.21S
HINCKLEY       FAIR      48  37  66 E7        30.22S
CLOQUET        CLOUDY    43  34  70 E9        30.23F
MCGREGOR       MOSUNNY   45  37  76 E9        30.21S
$$
MNZ071>073-080-081-089-090-097-098-211700-
   Southwest Minnesota

CITY           SKY/WX    TMP DP  RH WIND       PRES   REMARKS
MONTEVIDEO     SUNNY     54  43  66 S14       30.11S
GRANITE FALLS  SUNNY     51  42  69 SE13      30.12F
CANBY          SUNNY     54  42  64 SE10      30.07F
MARSHALL       SUNNY     55  39  54 SE10      30.08F
REDWOOD FALLS  SUNNY     53  41  63 SE12      30.12F
OLIVIA         SUNNY     52  41  66 SE14      30.12F
PIPESTONE      SUNNY     59  41  51 S13G21    30.07F
WINDOM         SUNNY     57  43  58 SE10      30.12F
WORTHINGTON    SUNNY     59  41  51 SE10      30.12S
JACKSON        SUNNY     55  41  58 SE9       30.13F
TRACY          SUNNY     59  42  54 S13G18    30.11S
SLAYTON        SUNNY     58  40  52 SE12      30.11S
$$
MNZ065>067-074>077-082>085-091>093-211700-
   South Central Minnesota

CITY           SKY/WX    TMP DP  RH WIND       PRES   REMARKS
MANKATO        SUNNY     52  39  62 SE12      30.17S
NEW ULM        SUNNY     52  43  71 SE9       30.15S
ST JAMES       SUNNY     55  43  62 SE8       30.15F
FAIRMONT       SUNNY     54  39  58 SE8       30.15F
GLENCOE        SUNNY     52  43  71 E12       30.16F
FARIBAULT      SUNNY     52  41  66 E13       30.19S
OWATONNA       SUNNY     52  39  62 E10G16    30.18S
WASECA         SUNNY     50  37  62 SE12      30.19S
ALBERT LEA     SUNNY     54  43  66 SE9       30.18S
$$
MNZ078>079-086>088-094>096-211700-
   Southeast Minnesota

CITY           SKY/WX    TMP DP  RH WIND       PRES   REMARKS
ROCHESTER      SUNNY     50  41  71 SE13      30.22R
RED WING       SUNNY     50  37  62 SE8       30.22S
STANTON        SUNNY     51  40  67 E10       30.19S
DODGE CENTER   SUNNY     52  41  66 SE12G17   30.19F
WINONA         SUNNY     48  41  76 E8        30.24S
AUSTIN         SUNNY     52  43  71 SE9       30.19S
PRESTON        MOSUNNY   46  39  76 SE10      30.21F
$$
ABBREVIATIONS USED IN REMARKS
   TC - TEMPERATURES IN CELSIUS
  WCI - WIND CHILL INDEX
   HX - HEAT INDEX
  VSB - VISIBILITY
$$



USA.gov is the U.S. government's official web portal to all federal, state and local government web resources and services.